{"data":{"norad_id":60107,"intl_designator":"2024-117S","name":"STARLINK-32035","alt_names":[],"object_type":"PAYLOAD","status":"ACTIVE","operator":null,"country":"US","launch_date":"2024-06-23","launch_site_code":"AFETR","launch_vehicle":null,"mission":null,"orbit_class":"UNKNOWN","rcs_meters":null,"size_class":null,"mass_kg":null,"dimensions":null,"purposes":["comms"],"wikipedia_slug":null,"has_3d_model":false,"image_url":null,"decayed_at":null,"tle_current":{"epoch":"2026-05-25T03:35:12.384096Z","epoch_age_seconds":72303,"freshness":"FRESH","line1":"1 60107U 24117S   26145.14944889  .00000635  00000+0  33562-4 0  9990","line2":"2 60107  53.1607  41.9137 0001441  92.9984 267.1181 15.30197078108594","mean_motion":15.30197078,"eccentricity":0.0001441,"inclination_deg":53.1607,"raan_deg":41.9137,"arg_perigee_deg":92.9984,"mean_anomaly_deg":267.1181,"bstar":3.3562e-5,"rev_number":10859,"period_min":94.105525406055,"perigee_km":474.2362247081,"apogee_km":476.21136328893,"semimajor_km":6853.3607939985,"source":"CELESTRAK","updated_at":"2026-05-25T13:38:19.163484Z"}}}